OAO 2 (3597 NORAD) Tracking and Keplerian Element Data

This shows tracking and keplerian element data for the satellite.

Feedback or suggestion? Click here.




ElementValue
Catalog3597
NameOAO 2
Epoch Orbit79977
Epoch Day15.57559179
Epoch Year2022
RAAN68.1326
Inclination34.9947
Eccentricity0.0006142
Argument of Perigee307.9996
Mean Anonmoly52.0139
Mean Motion14.45910837
Decay Rate7.9E-07
L11 03597U 68110A 22015.57559179 .00000079 00000+0 27206-4 0 9994
L22 03597 34.9947 68.1326 0006142 307.9996 52.0139 14.45910837799775

Live tracking and technical data element details for OAO 2 (NORAD 3597). OAO 2 can be tracked NOW for your location showing map with azimuth and elevation plus other details from your city location.

Track the satellite on the map from your city or location and see movement details for azimuth, elevation, latitude, longitude, range, height, and movement on the map or in text.







IsCatalogInMostPopularTable: catalog: 3597, numindb: 228
Update: records affected: 1



GetName: 3597 OAO 2

Hit Count: updated at: Mon, 17 Jan 2022 01:47:24 GMT